Flag for United Kingdom Weather past 2 weeks in Silverstone, England, United Kingdom

Now
47 °F

Cool.


Feels Like: 45 °F
Forecast: 40 / 57 °F
Wind: 5 mph from Southwest

Location: Church Lawford

Current Time: May 29, 2015 at 7:28:59 AM

Latest Report: May 29, 2015 at 6:00 AM


Visibility: 14 mi

Pressure: 29.77 "Hg

Humidity: 87%

Dew point: 44 °F

Location of SilverstoneLocation

Historic Weather in Silverstone — Graph

°F

Silverstone temperature yesterday

Maximum temperature yesterday: 59 °F (at 5:00 PM)
Minimum temperature yesterday: 44 °F (at 11:00 PM)
Average temperature yesterday: 53 °F

Past Weeks' High & Low Weather Summary

 TemperatureHumidityPressure
High67 °F (May 22, 4:00 PM)96% (May 18, 9:00 AM)30.35 "Hg (May 18, 9:00 AM)
Low38 °F (May 20, 5:00 AM)41% (May 21, 6:00 PM)29.54 "Hg (May 19, 5:00 AM)
Average51 °F76%30.08 "Hg
* Reported May 14 6:00 AM — May 29 6:00 AM, Silverstone, Weather by CustomWeather, © 2015

Note: Actual official high and low records may vary slightly from our data, if they occured in-between our weather recording intervals... More about our weather records

Advertising

Silverstone weather history for previous 24 hours

 ConditionsComfort  
Time TempWeatherWind HumidityBarometerVisibility
6:00 AM
Fri, May 29
47 °FCool.5 mph87%29.77 "Hg14 mi
5:00 AM48 °FCool.7 mph80%29.79 "Hg19 mi
4:00 AM47 °FCool.6 mph80%29.82 "Hg16 mi
3:00 AM48 °FCool.5 mph80%29.84 "Hg22 mi
2:00 AM48 °FCool.5 mph80%29.86 "Hg19 mi
1:00 AM49 °FCool.3 mph78%29.89 "Hg16 mi
12:00 AM48 °FCool.5 mph69%29.91 "Hg28 mi
11:00 PM
Thu, May 28
44 °FQuite cool.3 mph79%29.92 "Hg19 mi
9:00 PM52 °FCool.7 mph53%29.92 "Hg28 mi
8:00 PM54 °FCool.9 mph50%29.92 "Hg25 mi
7:00 PM56 °FRefreshingly cool.12 mph43%29.92 "Hg25 mi
6:00 PM57 °FRefreshingly cool.13 mph45%29.93 "Hg28 mi
5:00 PM59 °FRefreshingly cool.12 mph45%29.93 "Hg19 mi
4:00 PM57 °FRefreshingly cool.14 mph46%29.94 "Hg18 mi
2:00 PM58 °FRefreshingly cool.14 mph51%29.94 "Hg17 mi
1:00 PM55 °FCool.8 mph65%29.95 "Hg22 mi
12:00 PM55 °FRefreshingly cool.15 mph54%29.95 "Hg22 mi
11:00 AM56 °FRefreshingly cool.12 mph58%29.94 "Hg22 mi
10:00 AM52 °FCool.8 mph64%29.95 "Hg19 mi
9:00 AM50 °FCool.13 mph69%29.95 "Hg19 mi
8:00 AM50 °FCool.12 mph76%29.94 "Hg22 mi
7:00 AM48 °FCool.12 mph80%29.92 "Hg14 mi
Weather by CustomWeather, © 2015

See weather overviewHow to use our weather pages